FALCON 9 DEB (51155 NORAD) Tracking and Keplerian Element Data

This shows tracking and keplerian element data for the satellite.

Feedback or suggestion? Click here.




ElementValue
Catalog51155
NameFALCON 9 DEB
Epoch Orbit236
Epoch Day32.56882315
Epoch Year2022
RAAN205.4759
Inclination53.2067
Eccentricity0.0013337
Argument of Perigee232.3653
Mean Anonmoly127.6189
Mean Motion16.47479119
Decay Rate0.11514662
L11 51155U 22005BD 22032.56882315 .11514662 12418-4 17416-3 0 9991
L22 51155 53.2067 205.4759 0013337 232.3653 127.6189 16.47479119 2369



Live tracking and technical data element details for FALCON 9 DEB (NORAD 51155). FALCON 9 DEB can be tracked NOW for your location showing map with azimuth and elevation plus other details from your city location.







IsCatalogInMostPopularTable: catalog: 51155, numindb: 33
Update: records affected: 1



GetName: 51155 FALCON 9 DEB

Hit Count: updated at: Sun, 28 May 2023 20:03:13 GMT